GFSMW_con_3kmhel_147.txt.gz
Helicity
129 148 168 187 276 254 238 289 251 240 237 168 104 78 73 92 106 117 133 163 244 221 195 242 255 336 357 357 296 211 181 201 174 146 233 266 212 156 196 178 169 124 188
168 144 161 120 103 147 124 141 258 278 198 196 181 85 110 107 117 119 122 142 181 247 222 210 293 354 323 302 332 278 290 250 214 221 237 269 251 172 166 169 156 148 154
217 131 76 69 68 96 115 117 111 156 252 171 181 174 122 140 153 155 162 142 151 207 226 177 243 258 270 323 337 354 388 325 290 198 301 320 248 167 154 169 164 176 191
137 132 112 111 130 77 66 74 104 141 177 340 198 163 176 160 140 134 152 161 158 158 210 235 221 260 367 336 363 325 333 331 267 282 174 178 163 153 108 108 155 204 204
116 109 81 28 41 36 51 48 83 160 250 301 327 294 275 117 136 178 119 139 147 166 218 237 203 236 285 333 339 300 262 196 387 247 210 155 143 139 156 135 160 121 151
63 52 39 17 -7 -32 -47 -27 29 73 224 344 357 269 274 222 112 124 194 177 170 183 169 239 280 230 268 300 305 244 217 269 234 291 274 148 164 142 132 127 154 45 83
19 13 44 63 42 11 -31 -61 -11 65 144 321 421 347 357 333 246 122 202 208 173 171 143 164 226 258 271 357 243 91 132 132 215 238 258 126 76 113 103 106 115 139 94
15 9 8 -7 -14 4 -9 -50 -8 114 106 227 365 403 450 436 312 132 154 173 236 269 310 376 355 409 289 387 153 258 226 125 212 209 162 135 84 148 96 98 122 133 161
34 18 3 0 -1 -19 -4 -22 -43 36 119 128 245 342 522 677 635 557 434 513 429 396 209 194 183 157 195 155 154 253 320 232 175 144 121 160 161 167 121 114 122 119 175
36 30 33 11 19 13 5 13 7 1 125 83 276 270 400 597 795 533 680 600 476 381 322 260 166 137 72 184 170 178 140 91 128 181 161 152 137 168 124 121 141 128 117
40 45 31 20 24 5 -15 -5 13 4 78 120 223 434 218 335 797 597 590 567 467 395 290 186 195 179 216 220 140 110 100 133 130 138 150 143 162 199 190 159 148 140 161
45 53 23 23 4 -2 -22 2 19 16 26 121 96 462 345 254 486 768 564 495 345 257 225 180 200 203 204 152 126 216 106 123 120 113 133 133 166 154 150 174 145 148 156
37 38 25 -34 -34 -18 -10 -7 20 4 30 124 58 279 368 367 193 360 427 297 281 246 216 153 193 172 170 157 160 147 142 145 106 69 90 101 128 180 179 195 193 186 180
41 41 22 -7 -46 -22 -15 -6 2 3 21 104 122 159 335 292 155 106 243 243 186 195 208 168 163 162 158 145 184 184 159 112 93 112 105 76 91 158 142 184 212 189 221
41 33 26 14 -2 12 20 19 7 5 20 53 165 122 272 197 281 250 158 158 126 103 158 155 133 130 156 150 148 139 134 120 121 134 90 101 77 91 118 171 186 175 215
47 46 43 21 12 21 23 24 24 -9 14 21 66 4 113 100 107 101 96 82 66 83 105 109 111 110 100 45 77 84 88 109 113 117 125 95 79 87 96 115 157 172 222
41 31 23 18 15 17 14 19 27 24 4 0 55 42 36 37 63 88 98 94 68 82 74 108 108 116 108 64 86 70 84 86 87 106 123 103 101 78 87 68 97 133 177
17 9 9 12 8 5 8 12 17 28 50 46 25 56 78 109 97 88 96 86 80 62 55 71 76 97 75 47 56 65 67 69 79 89 85 88 79 52 81 74 134 119 154
-4 -8 -12 -12 -10 -3 -2 4 7 19 33 54 75 105 117 119 94 78 63 34 71 60 44 55 78 78 59 11 49 73 57 60 55 47 53 50 53 73 97 78 62 172 186
-11 -16 -13 -22 -13 -18 -18 -15 -8 3 13 32 60 70 72 78 87 110 122 111 114 117 98 69 72 40 76 88 95 61 14 28 11 31 14 27 34 30 74 73 63 75 117
-13 -20 -23 -22 -12 -6 -7 -10 -5 2 -1 1 1 9 22 38 38 50 49 68 77 79 101 113 93 110 79 84 90 77 48 -4 -43 -17 -4 0 54 64 46 70 53 74 85
-32 -29 -32 -26 -20 -5 0 4 8 5 3 0 0 -4 -8 -10 -5 17 25 28 31 45 54 74 91 67 67 77 72 139 114 74 12 -9 -7 3 56 93 61 34 47 64 79
16 -1 -38 -32 -15 -6 -5 -6 8 9 9 14 18 11 5 -3 -9 -7 -2 0 4 -2 -5 -5 9 38 48 41 86 145 191 77 23 15 29 53 43 38 18 38 65 86 103
52 39 16 18 -3 -1 -3 0 1 5 15 17 20 18 21 25 12 -14 -26 -25 -14 3 6 11 15 14 11 16 21 43 86 130 85 52 51 80 65 39 19 41 70 93 117
50 53 50 29 6 0 -6 -4 -1 4 11 12 11 19 15 9 7 -15 -39 -37 -47 -53 -51 -52 -39 -30 -18 -8 48 64 67 82 110 117 99 88 97 94 76 74 89 120 109
52 53 53 31 15 4 -9 -3 2 -1 6 22 28 32 23 18 10 15 18 -15 -32 -36 -42 -31 -29 -23 -2 21 35 62 105 136 132 124 136 133 141 142 143 144 136 138 145

GFSMW_con_3kmhel_153.txt.gz
Helicity
382 216 99 9 30 34 13 3 50 79 46 35 47 79 116 247 277 354 228 138 91 87 115 161 208 228 195 193 248 320 351 327 359 384 322 294 259 246 287 368 333 282 260
308 157 17 -37 -79 -74 -23 33 39 65 44 50 54 21 73 7 170 245 235 246 103 72 152 157 191 174 232 225 291 342 369 346 340 302 463 371 356 267 374 378 373 297 284
285 156 -12 -90 -109 -82 -29 9 6 11 27 43 22 40 20 70 36 89 50 95 219 240 126 161 190 234 246 282 289 307 312 305 373 307 397 385 414 475 458 441 389 323 319
220 95 51 33 20 7 3 -12 -20 -17 -11 19 -5 14 -1 -11 82 103 64 52 47 141 214 118 170 228 219 207 210 182 241 294 298 371 338 429 390 476 518 420 303 300 315
279 171 51 11 -3 -25 -13 6 12 -10 -29 -3 -11 -24 -8 -1 21 46 94 23 -23 8 140 212 123 149 241 191 207 226 249 260 301 334 426 496 521 502 508 456 273 244 207
196 93 40 20 3 29 45 13 31 36 43 -2 10 -5 16 33 27 38 57 58 45 -44 9 121 194 129 235 206 235 195 210 204 205 249 313 352 387 412 440 185 180 265 297
58 13 25 10 19 41 40 -28 -14 10 27 23 8 10 17 23 43 83 50 84 73 106 68 25 141 183 154 138 186 180 171 192 160 205 336 394 329 313 172 125 179 311 313
-22 -27 -10 16 6 22 8 -39 -42 -1 33 43 9 -27 -0 1 11 35 98 105 122 130 242 149 21 152 149 152 169 251 274 262 319 304 397 466 404 231 93 119 164 177 204
3 30 29 46 43 22 11 -15 -24 2 29 30 23 -15 8 25 26 72 82 106 166 172 267 304 159 108 151 154 187 226 242 290 326 368 381 372 303 341 303 185 172 166 106
42 22 50 57 40 -10 -37 -22 -7 6 21 35 21 5 7 9 27 41 86 113 170 259 102 382 369 173 158 205 224 264 309 354 355 300 279 266 246 259 213 191 142 123 178
37 52 62 61 31 -16 -16 -17 1 4 25 19 23 -27 -14 -1 23 49 94 111 230 259 134 419 461 481 143 222 267 244 265 242 250 202 174 147 149 131 140 124 123 128 169
76 67 94 69 31 17 17 -2 2 -15 -13 7 31 -28 9 21 33 60 124 163 206 203 172 275 847 568 626 582 433 263 200 153 45 -17 -56 50 102 102 97 112 130 140 169
88 105 103 77 50 24 10 1 -11 -45 -19 -2 41 14 4 21 37 76 150 144 163 232 298 216 697 491 370 681 649 641 476 363 245 223 156 114 77 44 49 45 57 67 91
98 118 101 74 41 17 10 -8 -37 -39 -6 -0 22 56 -1 7 4 40 57 162 164 181 242 243 162 445 238 461 411 447 418 316 256 185 187 177 177 160 92 98 82 64 87
116 88 69 57 35 19 13 -21 -44 -2 -4 -2 11 39 17 -5 13 12 44 86 144 170 125 208 206 21 133 65 181 343 256 242 221 184 196 195 147 155 100 89 66 100 88
98 67 57 48 33 28 13 -46 -51 -3 26 -42 -14 17 11 -24 1 19 40 18 25 78 129 146 154 71 26 107 129 241 306 224 190 181 181 148 113 89 48 68 58 72 94
75 66 66 55 44 43 -2 -37 -28 23 4 -58 -78 -41 -2 -8 -20 -38 -1 26 3 -40 -13 49 124 78 -40 63 58 260 153 163 107 140 118 120 105 107 97 123 119 108 99
61 73 73 56 50 52 -4 -11 -19 39 -15 -15 -13 -18 -35 -9 -8 -15 -5 -1 -25 24 33 47 39 51 -47 -22 32 154 110 102 100 103 114 136 131 77 60 72 93 77 107
62 73 68 71 64 45 13 -5 -0 16 -14 -12 8 13 17 -25 -16 2 24 17 25 35 50 54 48 37 -19 -19 -5 52 73 76 90 68 84 94 83 80 88 44 33 62 75
56 74 89 79 56 50 48 19 29 -5 -17 -2 18 30 34 27 -5 -13 8 5 7 36 32 37 34 31 64 81 -8 25 -14 38 52 63 53 74 49 96 133 42 12 37 63
112 107 90 63 60 75 60 37 42 -4 -8 -5 11 32 35 37 34 30 -3 -4 1 7 12 36 39 57 62 46 76 60 -9 9 4 39 76 86 148 146 126 100 34 31 63
122 112 71 73 80 68 50 51 27 -2 -18 -1 10 24 35 41 36 37 31 25 11 13 25 28 28 27 46 79 130 149 75 50 -2 26 68 103 163 158 137 83 75 78 55
90 78 71 76 80 60 60 51 16 -10 -5 -4 -0 11 21 27 32 37 34 25 19 7 19 21 41 53 44 65 99 114 123 118 74 55 87 105 83 72 50 70 100 103 64
62 58 62 56 46 45 44 46 16 7 11 20 14 12 15 24 26 32 32 29 8 7 1 -4 17 30 72 80 86 81 84 138 121 132 80 53 27 35 39 32 50 82 81
56 50 40 37 31 26 28 27 13 14 18 23 28 33 24 32 31 19 4 13 -3 -2 -3 -14 -27 -9 27 39 65 69 46 43 62 67 41 52 38 29 39 46 51 77 92
36 31 29 25 26 20 16 16 13 8 8 23 47 44 17 28 37 25 37 47 44 52 56 49 25 13 27 62 75 83 84 75 72 2 21 51 34 56 77 78 77 69 92

GFSMW_con_3kmhel_159.txt.gz
Helicity
404 376 351 315 267 230 168 102 13 -51 -98 -146 -165 -136 -77 -59 -4 -4 60 53 25 61 41 -31 -1 47 25 70 169 148 147 177 225 263 204 230 204 206 176 188 217 207 207
403 366 319 218 137 89 34 9 -22 -54 -104 -148 -171 -189 -124 -108 -49 0 1 -8 35 25 -8 11 -35 10 27 46 101 85 181 201 205 263 250 168 200 246 249 273 244 242 269
386 328 243 135 53 25 -48 -91 -123 -97 -70 -60 -68 -65 -107 -51 -30 1 3 10 3 2 4 -9 -6 -12 43 35 50 105 99 174 201 262 252 227 191 250 299 307 302 249 272
296 221 153 97 31 -52 -137 -146 -115 -87 -59 -35 -31 -31 -81 -87 -50 -54 -41 -23 -4 -5 -13 -31 -27 -38 -6 15 61 49 153 150 150 286 239 330 321 212 235 292 334 340 262
218 150 67 2 -33 -45 -48 -70 -66 -67 -43 -21 -16 -20 -4 -3 -8 -22 -36 -53 -37 -17 -20 -6 -15 -41 -47 16 59 96 88 109 111 119 419 300 345 425 306 345 398 417 276
222 136 31 -24 -36 -57 -61 -98 -55 -47 -51 -60 -38 -27 -26 -15 -7 8 6 0 -22 -58 -36 -24 -17 -13 -35 -37 10 87 77 92 85 101 149 300 521 287 209 295 127 166 191
232 192 153 60 18 -6 -37 -52 -54 -41 -43 -54 -28 2 9 11 0 3 9 -11 -64 -85 -63 3 11 21 43 40 4 18 65 77 89 119 181 262 268 241 179 144 102 261 330
159 118 50 1 -20 -33 -46 -36 -34 -33 -36 -30 -2 13 15 7 21 36 29 -6 -38 -24 -15 -18 29 43 78 60 4 -12 18 62 117 117 113 222 245 282 227 238 124 299 330
110 38 3 -9 -37 -55 -60 -78 -65 -35 -19 -1 1 -2 3 0 27 40 35 17 4 3 4 15 41 70 131 15 -3 -39 31 97 113 164 162 232 276 274 230 264 268 224 215
49 12 4 -21 -58 -78 -75 -74 -47 -24 -8 -5 3 17 24 40 28 38 40 15 22 18 21 49 61 94 79 27 33 6 20 112 128 180 226 234 310 270 318 308 311 309 253
51 25 6 -13 -30 -23 -20 -37 -19 -17 -13 -4 17 28 37 46 47 54 48 36 19 23 34 51 76 86 42 48 48 46 -7 26 183 174 239 211 260 265 276 282 308 330 325
94 84 62 39 57 30 33 28 12 12 3 12 37 40 46 45 48 53 69 55 27 24 33 49 74 28 11 39 56 64 0 119 197 208 200 174 253 244 230 275 277 296 256
134 101 85 80 55 38 39 34 29 15 21 27 32 29 40 52 62 66 66 64 44 12 23 30 53 15 3 30 134 118 90 118 583 430 448 473 304 294 305 285 274 236 202
124 120 108 101 49 41 26 26 26 24 32 27 18 9 37 57 69 72 74 59 49 22 8 27 53 -6 -29 -22 56 134 152 143 423 847 499 655 588 567 505 425 392 386 261
156 143 146 116 88 75 51 44 35 44 35 23 13 28 47 70 78 90 88 80 46 20 -11 6 15 10 -24 -56 39 53 123 78 108 444 514 450 604 636 578 439 448 341 298
164 173 149 108 95 83 61 51 59 51 30 31 9 33 47 66 82 88 86 65 72 15 -9 -2 12 -5 -1 38 59 73 93 150 163 166 333 466 473 485 525 487 486 415 281
166 151 131 125 114 92 65 68 59 39 27 32 33 27 39 52 70 78 70 69 56 51 17 -2 -18 -18 -43 43 83 76 56 100 136 196 313 265 159 340 374 330 276 309 227
149 163 159 143 122 92 76 69 47 24 22 33 43 48 37 37 50 50 57 47 50 46 12 28 7 -8 -16 8 61 73 36 90 116 104 155 175 239 385 335 309 204 171 180
193 177 150 119 102 91 76 43 33 13 15 29 44 38 42 32 36 37 33 37 30 35 38 17 12 -1 3 32 47 34 9 54 90 114 127 108 223 235 286 188 170 180 152
179 155 136 111 98 83 61 28 17 20 19 25 31 36 35 23 27 31 31 34 24 14 24 28 30 10 3 22 64 58 3 52 100 102 61 120 181 206 133 48 105 123 107
157 133 116 99 86 68 47 36 22 24 22 15 24 26 40 26 27 22 23 21 20 14 9 15 14 14 14 21 27 32 0 49 61 66 118 79 105 116 95 59 35 67 70
144 118 105 100 80 63 50 36 30 30 22 25 30 22 25 26 25 17 16 20 16 10 -1 8 15 9 14 37 57 75 45 54 50 88 100 120 106 71 87 47 75 49 51
109 96 93 85 74 64 52 45 39 36 35 28 32 27 25 27 25 18 11 8 20 6 -2 -1 -8 15 12 22 59 80 58 32 2 12 45 162 189 183 123 117 108 43 28
94 86 83 81 77 63 58 52 54 52 46 46 52 42 33 29 29 21 15 4 2 1 -5 -19 0 10 1 6 17 28 54 76 49 17 5 17 26 49 137 148 110 58 45
77 74 72 77 60 46 51 60 59 49 43 46 51 51 41 47 33 15 12 3 -10 -4 -11 -26 -21 -1 19 30 36 33 7 20 25 23 31 32 44 43 46 66 99 117 109
85 94 86 69 55 64 70 63 52 41 38 46 48 53 47 56 45 29 23 31 42 41 48 54 32 7 36 60 72 65 43 49 21 -34 -11 16 24 28 47 64 84 72 85

GFSMW_con_3kmhel_162.txt.gz
Helicity
366 380 375 332 291 240 212 173 132 74 35 16 11 -18 -9 14 33 40 63 71 104 96 26 -5 -16 48 72 56 85 95 75 60 328 176 181 219 170 199 206 222 221 222 223
374 371 353 329 291 223 156 105 29 -9 -29 -83 -136 -148 -114 -118 -80 -12 27 66 92 79 50 -10 -25 13 20 60 56 50 71 69 37 298 188 217 259 180 190 233 227 220 269
318 319 322 278 199 142 64 6 -48 -60 -64 -52 -58 -52 -100 -4 15 55 56 64 48 43 36 38 7 -25 -1 17 12 43 63 31 62 176 165 201 559 291 253 226 282 246 298
308 269 237 177 122 86 32 -3 -27 -40 -29 -40 -17 -17 -41 -19 3 -3 4 40 55 55 40 32 23 15 -7 -23 10 -12 47 44 35 77 93 172 189 279 255 425 310 296 281
261 224 163 113 78 29 -8 -51 -60 -41 -24 -13 -11 -15 2 -14 -14 -13 -9 11 16 21 19 4 2 2 -8 10 -2 5 30 50 49 73 67 96 146 177 250 260 269 278 272
191 162 96 43 6 -31 -46 -56 -22 -28 -15 -7 -9 -20 -27 -31 -25 -16 -10 2 9 -11 3 -4 -14 -14 -2 26 25 37 13 22 79 89 111 105 100 101 159 193 213 490 509
215 158 104 88 31 14 6 -5 10 9 -9 -23 -25 -40 -49 -33 -7 -0 -4 6 -11 -10 -38 -52 19 54 53 45 37 59 67 8 50 100 98 130 112 142 155 241 343 500 186
190 144 95 63 27 30 22 3 -6 -6 -19 -27 -13 1 -5 6 -3 -5 3 -12 -13 -9 -28 -19 2 27 47 74 87 32 8 12 -3 57 100 112 111 139 150 270 250 228 153
163 124 93 82 48 17 -4 2 -7 -1 3 -9 -1 6 13 13 26 21 17 31 26 40 18 2 17 29 52 60 27 18 12 19 34 24 65 93 104 129 150 221 246 232 226
152 128 98 65 36 6 -8 -12 -2 -11 -13 -4 11 30 20 26 38 48 59 51 51 41 42 11 -0 27 30 21 30 12 4 24 38 44 78 105 138 122 149 229 259 241 195
143 111 72 59 27 18 -0 -5 11 14 2 15 22 33 40 48 57 64 54 48 50 44 61 29 3 31 31 10 -23 -7 -8 36 78 67 73 100 114 119 148 257 266 252 217
149 141 99 64 44 38 39 46 45 26 22 25 31 24 31 52 56 48 51 65 60 59 56 46 27 28 28 -11 -35 -27 -5 24 85 80 77 119 53 81 91 234 260 270 270
195 160 115 92 92 82 85 74 52 42 39 30 24 17 27 44 33 40 63 75 70 69 58 44 29 2 15 22 -17 -17 3 -12 63 112 88 164 146 108 163 209 233 251 275
202 164 149 121 113 100 75 59 57 50 39 31 30 16 32 47 30 46 61 65 77 64 53 36 24 2 4 30 -9 26 24 13 36 114 169 58 310 268 483 445 319 216 219
215 178 129 114 121 115 95 78 72 53 39 34 31 20 36 53 47 34 49 65 78 80 52 39 30 13 9 23 -3 39 -2 16 27 56 100 88 236 283 663 484 566 469 277
202 157 141 158 154 125 95 86 68 48 38 32 25 16 34 47 48 46 39 43 63 72 66 46 36 11 18 13 3 28 7 -10 23 31 62 86 175 248 534 589 620 471 408
186 158 165 168 145 114 88 85 58 44 40 33 24 16 21 30 41 41 40 34 42 55 67 51 42 7 25 9 22 16 -6 8 13 48 69 61 97 238 311 310 355 491 464
176 173 176 170 139 106 103 77 57 46 41 33 20 20 20 20 28 33 34 28 40 43 56 47 40 34 28 -7 26 39 12 -27 3 10 52 93 150 218 281 136 199 389 350
190 203 189 151 130 107 90 66 53 46 39 32 17 11 11 13 9 19 28 23 20 27 35 40 34 20 22 10 20 23 43 1 5 12 24 13 41 177 205 117 176 126 182
218 192 165 137 119 93 71 63 57 46 46 36 20 11 4 -0 1 8 12 21 24 12 23 25 24 5 19 15 30 30 -15 24 22 19 38 48 24 69 156 139 149 336 147
196 162 141 119 93 74 71 68 54 54 42 34 32 33 26 9 8 11 9 9 16 14 14 30 29 19 1 14 48 54 -5 -5 36 18 23 38 90 56 92 144 163 192 150
160 130 116 104 87 84 73 60 53 53 55 50 54 49 39 25 25 14 3 3 1 -0 6 20 21 35 20 15 41 67 54 35 -23 31 21 24 84 125 74 67 96 90 57
121 112 113 103 94 85 75 66 63 74 68 55 55 50 46 34 40 27 15 -0 -5 -18 -16 -4 4 17 28 22 45 61 69 57 16 -24 18 83 89 106 85 85 98 69 53
112 101 106 105 98 82 87 83 77 68 61 61 62 53 49 42 46 47 35 16 5 -10 -27 -30 -13 9 9 -3 -11 3 30 68 39 42 34 57 80 67 54 78 109 96 51
98 95 99 99 93 93 97 89 76 71 71 67 64 64 60 64 56 59 41 8 -10 -11 -18 -30 -28 -15 6 6 25 17 -13 7 23 35 25 42 71 88 134 149 118 102 130
87 95 100 103 101 96 85 79 79 67 58 63 66 65 59 62 62 67 69 57 52 44 38 43 21 10 45 68 63 53 30 35 39 -0 28 43 42 43 62 97 125 111 127

GFSMW_con_3kmhel_165.txt.gz
Helicity
279 268 271 263 242 225 215 211 193 169 129 119 94 71 75 68 76 102 133 133 118 130 129 96 69 64 51 63 60 41 55 87 140 145 100 59 120 124 171 117 135 134 167
283 275 274 256 246 231 190 147 90 50 21 -1 -5 -27 -1 23 39 60 62 72 91 108 101 101 84 81 47 25 23 47 31 18 75 71 111 62 50 71 265 115 108 159 200
327 305 299 275 229 194 142 99 65 49 46 35 24 21 -5 14 34 48 49 52 54 65 69 72 60 56 38 28 17 17 48 47 38 97 73 61 145 174 165 169 146 152 225
311 301 279 240 188 144 83 70 55 44 32 32 29 30 12 30 31 29 43 61 69 72 80 78 63 39 15 17 31 48 46 40 49 32 74 145 149 112 141 174 169 136 195
277 264 228 194 156 119 90 58 54 53 47 34 30 17 17 3 -3 5 21 24 31 42 53 56 36 18 -5 6 34 65 60 68 53 44 56 97 122 178 160 121 90 152 257
233 221 196 154 126 83 57 33 39 33 29 29 32 25 15 2 -2 7 12 10 5 17 29 42 40 27 -9 -1 35 58 49 82 113 67 35 62 79 101 180 212 190 167 151
209 207 168 121 83 69 51 25 32 48 48 41 36 26 16 8 11 26 38 38 47 47 44 49 57 53 15 27 55 68 58 33 43 70 47 53 76 89 115 147 153 154 195
189 167 134 116 84 67 61 55 64 70 58 37 32 21 20 24 29 38 45 53 50 47 36 43 53 57 19 35 70 30 45 44 43 43 74 64 44 78 96 125 148 115 170
141 141 140 117 71 83 77 64 55 46 36 27 21 18 19 26 34 41 49 57 49 59 61 59 67 67 54 47 49 50 39 51 53 55 40 64 46 53 88 105 123 154 162
150 156 147 115 105 100 73 53 49 49 38 29 22 18 20 34 42 48 51 52 60 54 60 72 66 58 57 72 46 36 39 23 21 23 34 56 53 57 42 84 69 130 109
146 168 155 154 128 92 56 58 70 57 45 33 24 24 33 40 46 50 58 60 49 42 63 79 74 64 55 59 32 41 2 19 3 20 37 41 46 27 8 1 22 59 82
182 191 200 169 132 93 68 77 79 68 51 34 28 31 40 47 47 47 44 47 48 40 65 74 76 55 42 46 22 -6 5 5 8 31 52 33 -3 2 27 7 27 35 56
260 256 219 169 128 96 89 85 91 77 60 40 33 37 40 39 44 38 29 40 46 42 57 62 65 51 46 50 28 -17 -18 23 29 31 43 24 4 -6 21 51 -65 -9 13
297 252 209 167 126 116 111 110 98 73 52 38 34 41 36 27 28 25 14 31 38 42 47 53 49 49 51 47 45 20 3 9 22 21 22 27 2 -7 31 47 19 -97 -84
316 226 208 156 136 135 118 113 94 67 49 45 45 39 31 29 20 20 12 18 27 39 37 43 42 44 38 51 47 39 13 6 20 34 18 35 32 67 101 44 84 62 10
271 255 202 160 150 129 119 105 81 63 49 48 46 37 32 27 22 15 9 9 13 23 35 36 27 25 25 26 44 44 43 21 15 -0 11 9 34 63 155 219 293 270 241
278 229 176 153 149 129 116 97 72 55 56 53 44 41 35 28 23 14 11 7 10 10 16 28 26 21 14 15 22 49 47 42 40 12 -15 -8 -27 27 11 101 166 217 127
244 189 158 163 139 119 107 82 71 65 61 54 47 41 32 26 22 16 17 13 9 3 6 9 24 18 11 17 12 42 28 41 48 26 -43 -15 -6 -41 40 35 131 218 307
190 181 171 142 132 120 95 82 75 66 56 50 41 36 35 34 33 35 26 16 16 11 12 10 16 12 11 25 26 19 12 29 44 36 -12 -32 5 23 53 57 83 187 306
191 171 145 139 132 113 88 75 72 59 54 45 39 38 41 39 37 36 30 21 18 14 22 23 22 19 15 33 43 38 -0 19 10 13 21 25 37 44 40 -17 67 95 324
178 155 156 148 118 89 76 81 69 67 53 50 48 53 56 47 35 25 22 16 19 27 31 36 39 34 24 35 65 71 9 8 17 -3 2 19 57 49 36 31 40 106 139
165 158 144 119 90 82 82 76 75 64 66 67 72 71 67 53 51 48 45 43 43 36 32 41 49 47 37 46 75 100 73 45 5 11 4 2 54 53 63 40 53 97 146
158 124 108 97 89 81 79 74 75 77 75 80 76 68 69 63 61 65 61 55 57 64 65 55 36 41 32 17 73 111 111 75 20 14 19 44 42 49 50 89 88 63 48
115 99 88 92 91 81 79 76 74 70 71 72 71 65 68 69 66 68 73 70 81 77 74 41 18 8 2 -1 -4 9 47 76 48 41 28 25 32 20 17 34 66 68 75
91 81 86 87 82 80 82 78 75 69 70 68 62 66 66 68 64 71 91 90 96 96 92 67 31 -6 -19 -10 10 1 -23 1 27 15 9 27 37 59 68 58 67 82 95
83 85 84 76 81 84 85 80 70 62 60 59 61 59 60 65 78 86 81 95 120 112 117 104 88 34 22 34 32 24 1 10 23 -18 2 13 20 34 61 95 104 95 107